Location: Millers Ferry
(32.0990°N, 87.3680°W)
Time: 18:17:23
(UTC-06:00)

CSL-04 Rocket - Visible Passes

Search period start: 24 February 2017 00:00
Search period end: 06 March 2017 00:00
Orbit: 806 x 861 km, 99.0° (Epoch: 24 February)

Date Brightness Start Highest point End Pass type
(mag) Time Alt. Az. Time Alt. Az. Time Alt. Az.
24 Feb 3.8 05:27:33 10° NNE 05:32:58 82° ESE 05:38:26 10° SSW visible
25 Feb 4.5 05:10:46 10° NNE 05:16:04 55° ESE 05:21:25 10° S visible
25 Feb 7.2 18:13:43 10° WSW 18:15:48 12° W 18:17:54 10° WNW visible
26 Feb 5.2 04:54:10 10° NNE 04:59:09 37° E 05:04:10 10° SSE visible
27 Feb 5.9 04:37:45 10° NE 04:42:11 25° E 04:46:38 10° SSE visible
28 Feb 6.5 04:21:43 10° NE 04:25:12 17° E 04:28:40 10° SE visible
01 Mar 6.9 04:06:44 10° ENE 04:08:09 11° E 04:09:35 10° ESE visible
01 Mar 3.7 05:43:25 10° N 05:48:49 71° WNW 05:54:17 10° SSW visible
02 Mar 3.9 05:26:31 10° NNE 05:31:58 79° ESE 05:37:28 10° S visible
03 Mar 4.6 05:09:45 10° NNE 05:15:04 53° ESE 05:20:26 10° S visible
03 Mar 7.2 18:12:27 10° WSW 18:14:45 13° W 18:17:03 10° WNW visible
04 Mar 5.3 04:53:09 10° NNE 04:58:09 36° E 05:03:10 10° SSE visible
05 Mar 6.0 04:36:46 10° NE 04:41:11 25° E 04:45:36 10° SSE visible
